SCP
-0 -0 -0 -0 0 -0 0 -0 -0 -0 -0 -0 0 0 0 0 -0 -0 0 0 -0 0 0 0 0 0 0 0 0 0 0 0 0 0 0 0 0 0 0 0 0 0 0 0 0 0 0 0 0 0 0 0 0 0
-0 -0 -0 -0 -0 -0 -0 -0 -0 -0 -0 0 0 0 0 0 -0 -0 0 0 0 0 0 0 0 0 0 0 0 0 0 0 0 0 0 0 0 0 0 0 0 0 0 0 0 0 0 0 0 0 0 0 0 0
-0 -0 -0 -0 -0 -0 -0 -0 -0 -0 0 0 0 0 -0 0 0 -0 0 0 0 0 0 0 0 0 0 0 0 0 0 0 0 0 0 0 0 0 0 0 0 0 0 0 0 0 0 0 0 0 0 0 0 0
-0 -0 -0 -0 -0 -0 -0 -0 -0 -0 -0 -0 0 -0 0 -0 -0 -0 -0 0 -0 0 0 0 0 0 0 0 0 0 0 0 0 0 0 0 0 0 0 0 0 0 0 0 0 0 0 0 0 0 0 0 0 0
-0 -0 -0 -0 -0 -0 -0 -0 0 0 -0 0 0 0 0 0 -0 0 -0 -0 -0 0 0 0 0 0 0 0 0 0 0 0 0 0 0 0 0 0 0 0 0 0 0 0 0 0 0 0 0 0 0 0 0 0
-0 -0 -0 -0 -0 -0 0 -0 -0 0 0 0 0 0 0 0 0 -0 0 0 -0 0 0 0 0 0 0 0 0 0 0 0 0 0 0 0 0 0 0 0 0 0 0 0 0 0 0 0 0 0 0 0 0 0
-0 -0 -0 -0 -0 -0 -0 -0 0 0 0 -0 0 -0 0 0 0 0 0 0 -0 0 0 0 0 0 0 0 0 0 0 0 0 0 0 0 0 0 0 0 0 0 0 0 0 0 0 0 0 0 0 0 0 0
0 0 -0 -0 -0 -0 -0 -0 -0 0 0 0 -0 0 0 0 0 0 0 0 0 0 0 0 0 0 0 0 0 0 0 0 0 0 0 0 0 0 0 0 0 0 0 0 0 0 0 0 0 0 0 0 0 0
0 -0 0 0 -0 -0 -0 -0 -0 0 0 0 -0 -0 0 0 0 0 0 0 0 0 0 0 0 0 0 0 0 0 0 0 0 0 0 0 0 0 0 0 0 0 0 0 0 0 0 0 0 0 0 0 0 0
0 0 0 0 0 -0 -0 -0 -0 -0 -0 -0 -0 0 -0 -0 -0 -0 0 0 0 0 0 0 0 0 0 0 0 0 0 0 0 0 0 0 0 0 0 0 0 0 0 0 0 0 0 0 0 0 0 0 0 0
0 0 0 0 0 0 0 -0 -0 -0 0 0 0 0 -0 0 0 0 0 0 0 0 0 0 0 0 0 0 0 0 0 0 0 0 0 0 0 0 0 0 0 0 0 0 0 0 0 0 0 0 0 0 0 0
0 0 0 0 -0 -0 0 -0 0 -0 0 0 0 0 0 0 0 0 0 0 0 0 0 0 0 0 0 0 0 0 0 0 0 0 0 0 0 0 0 0 0 0 0 0 0 0 0 0 0 0 0 0 0 0
0 0 0 0 -0 -0 -0 -0 -0 -0 -0 -0 -0 0 0 0 0 0 0 0 0 0 0 0 0 0 0 0 0 0 0 0 0 0 0 0 0 0 0 0 0 0 0 0 0 0 0 0 0 0 0 0 0 0
-0 -0 0 0 -0 -0 -0 -0 -0 0 0 0 0 0 0 0 0 0 0 0 0 0 0 0 0 0 0 0 0 0 0 0 0 0 0 0 0 0 0 0 0 0 0 0 0 0 0 0 0 0 0 0 0 0
-0 0 0 0 -0 -0 -0 -0 -0 0 0 0 0 0 0 0 0 0 0 0 0 0 0 0 0 0 0 0 0 0 0 0 0 0 0 0 0 0 0 0 0 0 0 0 0 0 0 0 0 0 0 0 0 0
-0 0 0 -0 -0 -0 -0 0 0 0 0 0 0 0 0 0 0 0 0 0 0 0 0 0 0 0 0 0 0 0 0 0 0 0 0 0 0 0 0 0 0 0 0 0 0 0 0 0 0 0 0 0 0 0
0 0 -0 -0 -0 0 0 0 0 0 0 0 0 0 0 0 0 0 0 0 0 0 0 0 0 0 0 0 0 0 0 0 0 0 0 0 0 0 0 0 0 0 0 0 0 0 0 0 0 0 0 0 0 0
0 0 0 0 0 0 0 0 0 0 0 0 0 0 0 0 0 0 0 0 0 0 0 0 0 0 0 0 0 0 0 0 0 0 0 0 0 0 0 0 0 0 0 0 0 0 0 0 0 0 0 0 0 0
0 0 0 0 0 0 0 0 0 0 0 0 0 0 0 0 0 0 0 0 0 0 0 0 0 0 0 0 0 0 0 0 0 0 0 0 0 0 0 0 0 0 0 0 0 0 0 0 0 0 0 0 0 0
0 0 0 0 0 0 0 0 0 0 0 0 0 0 0 0 0 0 0 0 0 0 0 0 0 0 0 0 0 0 0 0 0 0 0 0 0 0 0 0 0 0 0 0 0 0 0 0 0 0 0 0 0 0
0 0 0 0 0 0 0 0 0 0 0 0 0 0 0 0 0 0 0 0 0 0 0 0 0 0 0 0 0 0 0 0 0 0 0 0 0 0 0 0 0 0 0 0 0 0 0 0 0 0 0 0 0 0
0 0 0 0 0 0 0 0 0 0 0 0 0 0 0 0 0 0 0 0 0 0 0 0 0 0 0 0 0 0 0 0 0 0 0 0 0 0 0 0 0 0 0 0 0 0 0 0 0 0 0 0 0 0
0 0 0 0 0 0 0 0 0 0 0 0 0 0 0 0 0 0 0 0 0 0 0 0 0 0 0 0 0 0 0 0 0 0 0 0 0 0 0 0 0 0 0 0 0 0 0 0 0 0 0 0 0 0
0 0 0 0 0 0 0 0 0 0 0 0 0 0 0 0 0 0 0 0 0 0 0 0 0 0 0 0 0 0 0 0 0 0 0 0 0 0 0 0 0 0 0 0 0 0 0 0 0 0 0 0 0 0
0 0 0 0 0 0 0 0 0 0 0 0 0 0 0 0 0 0 0 0 0 0 0 0 0 0 0 0 0 0 0 0 0 0 0 0 0 0 0 0 0 0 0 0 0 0 0 0 0 0 0 0 0 0
0 0 0 0 0 0 0 0 0 0 0 0 0 0 0 0 0 0 0 0 0 0 0 0 0 0 0 0 0 0 0 0 0 0 0 0 0 0 0 0 0 0 0 0 0 0 0 0 0 0 0 0 0 0
0 0 0 0 0 0 0 0 0 0 0 0 0 0 0 0 0 0 0 0 0 0 0 0 0 0 0 0 0 0 0 0 0 0 0 0 0 0 0 0 0 0 0 0 0 0 0 0 0 0 0 0 0 0
0 0 0 0 0 0 0 0 0 0 0 0 0 0 0 0 0 0 0 0 0 0 0 0 0 0 0 0 0 0 0 0 0 0 0 0 0 0 0 0 0 0 0 0 0 0 0 0 0 0 0 0 0 0
0 0 0 0 0 0 0 0 0 0 0 0 0 0 0 0 0 0 0 0 0 0 0 0 0 0 0 0 0 0 0 0 0 0 0 0 0 0 0 0 0 0 0 0 0 0 0 0 0 0 0 0 0 0
0 0 0 0 0 0 0 0 0 0 0 0 0 0 0 0 0 0 0 0 0 0 0 0 0 0 0 0 0 0 0 0 0 0 0 0 0 0 0 0 0 0 0 0 0 0 0 0 0 0 0 0 0 0
0 0 0 0 0 0 0 0 0 0 0 0 0 0 0 0 0 0 0 0 0 0 0 0 0 0 0 0 0 0 0 0 0 0 0 0 0 0 0 0 0 0 0 0 0 0 0 0 0 0 0 0 0 0
0 0 0 0 0 0 0 0 0 0 0 0 0 0 0 0 0 0 0 0 0 0 0 0 0 0 0 0 0 0 0 0 0 0 0 0 0 0 0 0 0 0 0 0 0 0 0 0 0 0 0 0 0 0
0 0 0 0 0 0 0 0 0 0 0 0 0 0 0 0 0 0 0 0 0 0 0 0 0 0 0 0 0 0 -0 -0 -0 0 0 0 0 0 0 0 0 0 0 0 0 0 0 0 0 0 0 0 0 0
Wind_Speed_500mb
100 79 85 87 91 85 68 62 57 54 54 54 54 37 27 28 42 55 58 42 47 14 12 24 37 24 16 47 17 17 7 2 4 4 6 5 6 9 7 7 17 16 15 7 7 6 16 4 5 17 16 24 38 31
88 91 69 65 64 69 65 66 63 59 48 45 33 28 22 38 18 32 18 25 22 11 19 42 33 27 30 35 28 51 30 13 21 8 3 7 5 5 8 11 5 6 12 13 12 9 8 9 10 22 26 47 34 31
81 76 87 63 51 44 39 43 43 37 20 15 21 10 14 23 34 14 16 25 41 26 30 23 29 28 19 25 42 17 15 26 12 11 10 5 9 7 9 8 7 7 5 7 8 6 13 18 24 32 41 41 39 29
72 72 64 62 62 37 32 25 18 7 7 18 13 19 24 17 18 25 11 13 7 11 8 19 30 28 27 28 28 10 27 30 26 14 7 5 6 5 5 7 6 5 15 13 7 10 15 14 23 37 38 37 32 26
62 63 64 55 47 44 43 41 33 8 2 3 4 6 8 12 16 24 18 17 18 3 8 8 22 33 28 29 24 22 25 18 14 7 6 4 5 7 3 5 1 4 10 11 9 26 11 21 48 39 36 32 27 23
53 54 54 54 55 39 33 33 35 44 25 11 11 7 10 7 6 20 5 24 18 17 8 6 9 32 26 27 19 23 27 20 17 10 5 6 6 3 5 5 1 5 7 9 11 34 20 60 54 40 33 29 26 25
48 46 47 47 46 49 34 24 29 34 37 25 16 9 11 19 17 6 9 9 15 17 8 5 5 16 21 21 20 27 22 17 9 9 8 3 3 6 4 5 11 16 22 35 41 46 37 50 29 39 31 29 29 25
48 46 43 40 40 41 45 24 18 24 34 33 31 32 36 30 30 25 19 10 14 11 13 6 5 8 28 17 9 18 10 9 19 7 5 6 3 7 3 3 28 30 37 42 33 10 30 43 47 37 31 30 28 23
51 48 44 41 36 31 33 37 13 5 3 7 12 13 10 13 12 8 15 19 27 14 10 11 5 2 22 17 11 11 12 6 9 5 5 6 3 6 2 18 36 45 21 38 31 31 43 42 38 33 30 29 23 24
49 51 50 44 38 31 24 24 25 8 3 7 8 6 5 8 2 5 7 8 16 21 17 5 10 6 18 16 10 6 10 3 3 6 14 5 6 4 6 15 40 46 19 44 45 33 37 36 34 31 28 27 23 24
44 49 51 50 45 35 27 18 24 5 5 8 6 7 9 11 7 6 11 17 18 10 19 10 16 4 19 5 4 10 2 4 4 6 2 5 6 1 9 25 34 32 31 35 18 14 23 21 31 32 32 31 29 26
40 42 48 50 48 39 29 20 17 15 10 8 7 8 10 14 10 14 3 8 11 1 12 5 11 10 9 8 4 8 5 4 2 9 6 7 5 12 27 31 32 27 26 22 17 20 26 29 30 31 33 32 28 24
41 37 44 46 45 39 28 20 13 14 8 8 5 8 16 17 19 11 7 8 5 6 11 10 3 5 5 9 9 6 10 3 7 7 5 7 6 13 31 29 28 27 25 22 24 27 30 33 35 35 33 29 26 22
40 37 39 43 43 37 26 19 11 7 8 7 12 13 7 9 1 7 7 7 2 3 7 7 6 8 8 9 1 10 5 4 8 7 8 5 18 11 33 31 26 25 25 25 27 30 33 35 36 34 31 28 24 20
35 34 36 43 47 38 25 16 14 4 8 10 9 4 4 4 4 5 5 3 3 4 8 4 7 5 7 8 5 6 10 5 9 8 6 13 20 16 32 34 28 26 28 31 34 37 39 38 34 31 28 25 23 19
33 30 35 41 45 38 27 12 9 6 9 7 11 12 6 4 2 7 11 7 8 3 1 5 5 8 6 5 7 8 9 9 7 6 9 16 15 16 27 24 24 25 28 30 32 34 36 35 31 27 27 25 23 20
32 24 35 38 41 40 25 7 6 9 9 6 5 18 14 8 9 10 12 10 9 4 1 6 7 8 2 6 5 8 10 7 10 11 9 9 9 14 26 27 29 33 36 38 38 37 32 32 32 30 29 24 23 22
29 30 30 32 36 34 15 9 6 6 9 9 5 17 9 14 21 17 13 16 7 4 8 6 12 5 9 10 8 8 27 15 11 13 16 18 18 24 32 31 31 33 35 36 35 34 35 34 32 29 28 28 27 24
36 32 29 28 30 20 9 7 5 8 6 8 16 23 12 9 12 17 19 17 11 6 8 7 6 7 8 13 16 18 20 16 12 14 18 21 23 25 26 30 32 34 36 38 39 37 32 30 28 29 32 32 28 28
33 31 26 19 20 9 5 3 3 6 9 13 15 17 10 7 16 16 16 17 15 6 3 5 11 12 17 20 16 16 13 13 15 17 18 16 18 24 28 30 32 32 35 37 38 39 37 37 37 35 34 33 33 29
34 17 18 18 10 7 4 5 3 7 16 9 21 19 8 13 9 16 16 20 15 12 7 30 37 27 28 23 20 22 22 19 17 17 17 12 12 17 23 29 33 36 40 42 43 41 40 40 30 34 37 36 32 33
31 24 19 13 9 6 3 3 7 13 8 13 19 9 6 7 9 11 13 18 17 22 27 25 29 28 31 34 36 30 28 27 26 26 24 21 18 21 28 32 39 42 46 44 42 40 36 31 32 39 39 34 37 36
19 12 10 11 9 7 2 16 4 6 5 9 11 3 3 6 8 12 9 17 21 29 41 46 43 34 27 25 27 31 33 35 34 32 29 27 28 27 26 30 35 41 43 43 38 37 37 37 40 40 37 39 40 39
13 8 9 8 11 8 13 6 6 8 9 4 4 4 4 7 10 3 7 13 23 22 23 28 30 31 31 34 36 31 31 34 33 35 36 37 38 37 35 33 35 37 38 38 42 44 42 45 44 43 41 40 39 39
6 10 8 6 7 8 5 3 3 4 6 6 6 4 4 10 3 6 7 12 23 25 25 29 27 25 26 24 23 20 25 31 35 37 36 40 41 41 42 42 42 41 41 44 46 47 45 45 45 43 42 41 39 37
8 11 11 11 6 9 10 9 11 11 7 7 7 5 6 4 2 12 7 10 16 14 16 16 18 22 24 23 24 21 23 30 33 38 38 37 41 45 44 44 44 44 42 40 41 41 41 41 43 42 41 38 36 36
10 10 12 11 9 12 7 5 7 4 9 12 8 9 7 6 11 8 9 12 9 11 11 14 17 19 19 18 18 19 21 25 30 37 41 42 39 41 42 45 43 37 36 37 36 36 40 40 39 38 35 34 35 35
17 14 8 16 11 10 7 6 9 12 8 14 20 11 13 15 9 4 9 8 10 11 16 18 18 18 20 26 37 48 50 48 46 47 50 50 47 43 42 39 37 37 37 37 34 33 33 35 37 34 33 32 30 33
9 11 17 6 5 9 14 13 10 13 16 25 8 8 9 13 11 8 9 10 13 15 21 26 31 37 45 42 27 25 31 34 34 37 39 39 36 28 26 27 33 32 33 34 33 31 30 29 30 30 30 31 31 32
10 21 7 6 8 10 11 14 6 10 18 20 10 10 13 21 25 26 27 33 42 43 44 40 30 14 11 15 22 28 33 36 37 36 37 31 26 24 23 26 25 28 29 31 32 32 33 33 34 32 32 32 31 31
11 21 6 10 7 6 9 12 15 12 12 15 25 26 27 23 37 40 32 28 20 12 14 12 5 4 7 12 17 23 27 29 25 22 24 26 28 19 15 19 24 25 28 28 30 33 33 33 32 31 31 30 29 28
13 12 8 6 6 8 11 9 6 6 7 7 7 9 8 9 12 11 11 12 21 17 11 5 3 1 6 12 18 22 22 19 14 10 10 9 15 24 17 14 15 17 20 23 25 28 31 32 33 31 30 29 29 29
4 7 5 7 5 4 10 8 3 3 5 5 5 5 7 6 15 11 13 21 25 17 10 9 7 2 7 12 16 18 17 15 13 12 12 7 6 18 23 18 14 13 16 21 25 27 29 29 28 27 27 27 27 28
Wind_Direction_500mb
43 45 53 61 75 86 104 110 113 122 130 136 140 133 157 201 224 235 241 230 206 155 49 195 181 167 158 177 174 157 119 209 140 148 114 186 129 206 121 150 168 168 155 173 117 165 260 108 121 178 123 118 141 137
45 49 49 62 62 88 102 109 115 119 124 139 146 147 26 39 38 213 243 208 188 102 108 94 135 164 183 169 159 165 187 142 207 112 138 117 139 138 152 183 118 212 183 172 187 200 79 66 92 139 156 145 151 146
39 48 50 53 63 75 71 109 133 141 109 105 165 4 15 16 30 34 131 120 117 104 68 77 71 106 140 148 161 162 154 149 242 146 150 153 133 147 158 227 101 251 167 118 115 149 133 124 128 141 156 150 152 153
38 42 50 56 55 61 68 89 103 126 212 216 244 289 326 325 5 18 3 2 38 89 81 46 83 71 105 134 167 132 153 151 129 109 100 119 121 201 186 150 146 182 132 133 77 114 116 177 165 150 144 145 146 147
37 38 41 45 57 61 58 49 32 354 232 212 236 305 334 337 344 349 17 22 15 130 136 112 70 61 102 110 96 119 143 97 68 69 49 89 117 115 343 56 228 203 158 177 203 174 135 158 169 164 156 152 150 152
31 35 38 39 38 41 55 60 51 39 56 137 106 95 78 6 285 327 47 57 50 53 83 56 45 35 77 100 126 103 109 91 63 82 69 68 67 74 109 183 116 145 156 160 141 159 139 151 161 169 165 159 154 155
22 26 29 32 33 33 31 40 49 65 52 76 84 13 303 292 3 92 46 17 38 42 68 60 21 15 33 51 60 62 82 78 69 96 63 97 90 86 102 195 134 140 131 125 137 136 118 151 166 167 167 160 158 153
21 19 18 22 25 26 27 32 46 70 83 73 71 59 54 65 72 71 55 27 32 77 63 76 324 29 17 21 35 27 54 63 37 70 61 42 12 37 293 104 149 141 142 147 153 173 173 162 158 160 161 159 155 148
15 17 17 14 14 18 19 23 25 44 347 5 13 28 64 47 41 32 14 29 43 80 96 59 40 314 2 19 29 37 35 59 18 50 41 353 322 216 171 172 172 166 161 165 153 144 147 156 155 158 163 161 158 150
14 13 12 13 12 10 13 12 8 353 9 14 4 6 65 24 3 317 348 17 33 35 52 92 345 340 355 360 37 25 31 50 63 13 333 57 269 315 334 194 187 176 173 165 150 149 160 162 165 164 163 160 160 157
6 8 10 8 7 9 12 15 14 16 18 357 358 44 28 11 22 46 54 41 353 31 21 17 23 331 20 28 32 32 74 5 79 288 97 332 299 100 150 159 170 178 175 174 182 180 176 179 172 168 166 165 164 162
2 1 4 5 4 5 8 11 29 48 62 54 67 43 20 22 36 69 18 353 41 83 345 8 335 346 0 2 93 1 113 27 207 317 64 318 241 173 165 163 166 170 177 187 180 170 170 168 169 168 168 167 166 165
358 1 2 2 1 3 6 8 8 24 35 44 29 49 10 350 42 64 344 331 24 341 352 337 329 344 340 10 68 56 64 205 301 37 237 238 284 203 181 177 178 181 185 186 180 174 173 175 174 174 174 175 177 182
351 354 1 2 2 2 4 14 12 12 28 39 37 23 76 341 222 183 185 189 196 268 339 339 305 36 6 39 8 74 255 66 38 19 248 268 328 220 189 189 198 201 196 188 183 183 182 182 183 184 184 188 195 201
345 343 352 359 2 360 360 9 24 44 57 67 44 61 61 148 155 168 213 274 194 341 352 17 44 9 355 64 39 91 25 324 198 228 236 318 335 207 194 199 202 204 204 196 191 189 188 189 189 191 196 204 213 219
341 342 348 349 353 357 358 350 4 76 67 75 83 95 146 81 223 211 202 197 172 186 47 53 83 50 357 113 49 220 115 225 252 225 274 321 326 221 208 215 216 210 207 208 205 200 198 199 201 204 211 217 224 234
336 335 336 342 347 350 353 332 27 61 74 72 68 128 137 101 124 152 164 172 159 169 212 107 66 207 95 38 294 196 202 213 208 230 273 308 304 243 219 220 217 214 209 206 206 207 206 207 211 217 224 228 236 246
323 324 330 335 341 347 357 31 73 88 78 113 133 150 157 145 148 160 173 166 160 175 157 185 131 110 181 176 259 232 226 212 245 279 286 284 268 236 224 229 226 219 213 210 211 211 215 220 228 232 231 235 244 256
322 322 324 330 339 340 339 14 54 97 96 124 143 152 142 162 172 165 169 171 164 155 148 138 89 201 227 210 213 198 204 217 244 278 287 282 269 249 234 222 217 217 216 216 217 221 226 237 241 237 239 244 252 262
310 307 309 316 330 315 300 10 71 107 139 153 152 157 150 169 172 182 184 179 171 196 164 196 215 215 211 225 212 212 226 242 253 268 284 279 262 245 236 229 227 222 219 221 223 227 233 240 243 243 247 250 253 263
310 308 304 310 304 239 230 172 100 107 136 150 153 153 155 160 176 180 196 196 205 221 239 232 234 237 236 243 231 226 233 250 261 262 267 276 256 230 225 225 221 221 225 227 231 236 241 246 248 244 246 251 255 259
294 290 292 281 244 223 150 157 124 137 140 134 150 155 151 167 183 189 182 197 236 234 217 237 248 247 249 251 247 247 247 251 253 252 254 255 247 232 224 222 223 228 232 236 240 245 250 250 244 244 250 254 255 259
291 267 242 233 212 204 181 161 146 134 113 184 150 86 226 193 182 178 246 232 251 249 237 241 244 246 251 257 254 250 251 251 255 253 250 248 245 242 233 232 236 241 243 244 245 247 246 242 244 249 253 254 258 258
253 250 240 226 203 162 151 137 144 125 127 142 147 215 217 183 168 181 254 245 241 243 236 233 235 242 248 253 254 256 257 260 260 253 247 247 249 250 251 249 247 248 249 247 242 242 240 240 242 246 251 255 256 256
255 232 213 235 169 116 118 118 126 160 195 172 162 219 185 159 190 230 240 263 240 244 235 227 229 234 245 255 259 258 256 257 259 262 256 255 257 254 252 252 251 249 246 244 242 243 245 243 244 248 251 253 254 256
233 212 186 199 178 172 178 155 197 192 151 170 212 134 151 146 165 242 230 244 233 222 214 226 239 242 254 268 270 268 258 255 258 259 263 257 258 260 261 259 256 252 251 251 248 246 245 242 242 246 249 253 253 257
244 239 201 191 169 155 109 111 140 160 170 195 175 162 177 200 241 247 246 236 218 213 226 239 244 249 254 263 269 276 285 286 280 273 274 271 263 258 257 255 257 260 251 248 248 244 244 244 244 245 250 249 251 257
233 189 194 176 184 194 148 158 177 204 198 165 139 186 189 200 239 239 221 207 209 238 251 254 256 258 266 278 290 296 293 286 280 274 270 268 266 262 258 258 256 251 245 242 242 239 238 235 235 241 247 250 254 258
207 184 163 146 177 213 224 197 211 199 177 174 185 213 233 225 238 241 239 259 262 257 259 269 270 276 286 290 289 292 294 295 291 284 281 278 273 270 265 253 245 244 238 233 233 231 230 230 234 241 245 249 254 259
199 179 182 182 184 224 212 207 216 200 199 206 233 266 265 262 268 268 266 279 279 279 276 277 276 261 267 291 301 303 301 298 290 279 275 275 269 257 247 236 233 225 225 227 225 224 226 231 238 244 248 254 258 260
173 181 187 202 242 235 227 221 225 227 229 236 240 251 261 283 285 290 281 277 269 233 168 160 185 281 314 327 333 333 327 319 311 294 277 263 242 229 229 226 221 217 215 218 223 230 236 244 251 253 255 257 258 259
188 200 190 211 240 229 211 204 215 229 234 231 248 242 280 285 272 264 251 211 179 171 171 181 169 83 13 356 353 353 349 353 2 359 340 305 223 203 196 191 192 199 202 216 233 243 249 253 256 257 256 253 256 258
171 203 246 295 280 247 197 183 207 293 246 257 256 257 238 241 255 249 232 204 192 187 187 178 159 95 5 360 359 4 14 25 39 35 23 18 192 200 199 195 205 222 236 250 258 257 255 254 251 249 249 253 256 257
Wind_Speed_850mb
100 79 85 87 91 85 68 62 57 54 54 54 54 37 27 28 42 55 58 42 47 14 12 24 37 24 16 47 17 17 7 2 4 4 6 5 6 9 7 7 17 16 15 7 7 6 16 4 5 17 16 24 38 31
88 91 69 65 64 69 65 66 63 59 48 45 33 28 22 38 18 32 18 25 22 11 19 42 33 27 30 35 28 51 30 13 21 8 3 7 5 5 8 11 5 6 12 13 12 9 8 9 10 22 26 47 34 31
81 76 87 63 51 44 39 43 43 37 20 15 21 10 14 23 34 14 16 25 41 26 30 23 29 28 19 25 42 17 15 26 12 11 10 5 9 7 9 8 7 7 5 7 8 6 13 18 24 32 41 41 39 29
72 72 64 62 62 37 32 25 18 7 7 18 13 19 24 17 18 25 11 13 7 11 8 19 30 28 27 28 28 10 27 30 26 14 7 5 6 5 5 7 6 5 15 13 7 10 15 14 23 37 38 37 32 26
62 63 64 55 47 44 43 41 33 8 2 3 4 6 8 12 16 24 18 17 18 3 8 8 22 33 28 29 24 22 25 18 14 7 6 4 5 7 3 5 1 4 10 11 9 26 11 21 48 39 36 32 27 23
53 54 54 54 55 39 33 33 35 44 25 11 11 7 10 7 6 20 5 24 18 17 8 6 9 32 26 27 19 23 27 20 17 10 5 6 6 3 5 5 1 5 7 9 11 34 20 60 54 40 33 29 26 25
48 46 47 47 46 49 34 24 29 34 37 25 16 9 11 19 17 6 9 9 15 17 8 5 5 16 21 21 20 27 22 17 9 9 8 3 3 6 4 5 11 16 22 35 41 46 37 50 29 39 31 29 29 25
48 46 43 40 40 41 45 24 18 24 34 33 31 32 36 30 30 25 19 10 14 11 13 6 5 8 28 17 9 18 10 9 19 7 5 6 3 7 3 3 28 30 37 42 33 10 30 43 47 37 31 30 28 23
51 48 44 41 36 31 33 37 13 5 3 7 12 13 10 13 12 8 15 19 27 14 10 11 5 2 22 17 11 11 12 6 9 5 5 6 3 6 2 18 36 45 21 38 31 31 43 42 38 33 30 29 23 24
49 51 50 44 38 31 24 24 25 8 3 7 8 6 5 8 2 5 7 8 16 21 17 5 10 6 18 16 10 6 10 3 3 6 14 5 6 4 6 15 40 46 19 44 45 33 37 36 34 31 28 27 23 24
44 49 51 50 45 35 27 18 24 5 5 8 6 7 9 11 7 6 11 17 18 10 19 10 16 4 19 5 4 10 2 4 4 6 2 5 6 1 9 25 34 32 31 35 18 14 23 21 31 32 32 31 29 26
40 42 48 50 48 39 29 20 17 15 10 8 7 8 10 14 10 14 3 8 11 1 12 5 11 10 9 8 4 8 5 4 2 9 6 7 5 12 27 31 32 27 26 22 17 20 26 29 30 31 33 32 28 24
41 37 44 46 45 39 28 20 13 14 8 8 5 8 16 17 19 11 7 8 5 6 11 10 3 5 5 9 9 6 10 3 7 7 5 7 6 13 31 29 28 27 25 22 24 27 30 33 35 35 33 29 26 22
40 37 39 43 43 37 26 19 11 7 8 7 12 13 7 9 1 7 7 7 2 3 7 7 6 8 8 9 1 10 5 4 8 7 8 5 18 11 33 31 26 25 25 25 27 30 33 35 36 34 31 28 24 20
35 34 36 43 47 38 25 16 14 4 8 10 9 4 4 4 4 5 5 3 3 4 8 4 7 5 7 8 5 6 10 5 9 8 6 13 20 16 32 34 28 26 28 31 34 37 39 38 34 31 28 25 23 19
33 30 35 41 45 38 27 12 9 6 9 7 11 12 6 4 2 7 11 7 8 3 1 5 5 8 6 5 7 8 9 9 7 6 9 16 15 16 27 24 24 25 28 30 32 34 36 35 31 27 27 25 23 20
32 24 35 38 41 40 25 7 6 9 9 6 5 18 14 8 9 10 12 10 9 4 1 6 7 8 2 6 5 8 10 7 10 11 9 9 9 14 26 27 29 33 36 38 38 37 32 32 32 30 29 24 23 22
29 30 30 32 36 34 15 9 6 6 9 9 5 17 9 14 21 17 13 16 7 4 8 6 12 5 9 10 8 8 27 15 11 13 16 18 18 24 32 31 31 33 35 36 35 34 35 34 32 29 28 28 27 24
36 32 29 28 30 20 9 7 5 8 6 8 16 23 12 9 12 17 19 17 11 6 8 7 6 7 8 13 16 18 20 16 12 14 18 21 23 25 26 30 32 34 36 38 39 37 32 30 28 29 32 32 28 28
33 31 26 19 20 9 5 3 3 6 9 13 15 17 10 7 16 16 16 17 15 6 3 5 11 12 17 20 16 16 13 13 15 17 18 16 18 24 28 30 32 32 35 37 38 39 37 37 37 35 34 33 33 29
34 17 18 18 10 7 4 5 3 7 16 9 21 19 8 13 9 16 16 20 15 12 7 30 37 27 28 23 20 22 22 19 17 17 17 12 12 17 23 29 33 36 40 42 43 41 40 40 30 34 37 36 32 33
31 24 19 13 9 6 3 3 7 13 8 13 19 9 6 7 9 11 13 18 17 22 27 25 29 28 31 34 36 30 28 27 26 26 24 21 18 21 28 32 39 42 46 44 42 40 36 31 32 39 39 34 37 36
19 12 10 11 9 7 2 16 4 6 5 9 11 3 3 6 8 12 9 17 21 29 41 46 43 34 27 25 27 31 33 35 34 32 29 27 28 27 26 30 35 41 43 43 38 37 37 37 40 40 37 39 40 39
13 8 9 8 11 8 13 6 6 8 9 4 4 4 4 7 10 3 7 13 23 22 23 28 30 31 31 34 36 31 31 34 33 35 36 37 38 37 35 33 35 37 38 38 42 44 42 45 44 43 41 40 39 39
6 10 8 6 7 8 5 3 3 4 6 6 6 4 4 10 3 6 7 12 23 25 25 29 27 25 26 24 23 20 25 31 35 37 36 40 41 41 42 42 42 41 41 44 46 47 45 45 45 43 42 41 39 37
8 11 11 11 6 9 10 9 11 11 7 7 7 5 6 4 2 12 7 10 16 14 16 16 18 22 24 23 24 21 23 30 33 38 38 37 41 45 44 44 44 44 42 40 41 41 41 41 43 42 41 38 36 36
10 10 12 11 9 12 7 5 7 4 9 12 8 9 7 6 11 8 9 12 9 11 11 14 17 19 19 18 18 19 21 25 30 37 41 42 39 41 42 45 43 37 36 37 36 36 40 40 39 38 35 34 35 35
17 14 8 16 11 10 7 6 9 12 8 14 20 11 13 15 9 4 9 8 10 11 16 18 18 18 20 26 37 48 50 48 46 47 50 50 47 43 42 39 37 37 37 37 34 33 33 35 37 34 33 32 30 33
9 11 17 6 5 9 14 13 10 13 16 25 8 8 9 13 11 8 9 10 13 15 21 26 31 37 45 42 27 25 31 34 34 37 39 39 36 28 26 27 33 32 33 34 33 31 30 29 30 30 30 31 31 32
10 21 7 6 8 10 11 14 6 10 18 20 10 10 13 21 25 26 27 33 42 43 44 40 30 14 11 15 22 28 33 36 37 36 37 31 26 24 23 26 25 28 29 31 32 32 33 33 34 32 32 32 31 31
11 21 6 10 7 6 9 12 15 12 12 15 25 26 27 23 37 40 32 28 20 12 14 12 5 4 7 12 17 23 27 29 25 22 24 26 28 19 15 19 24 25 28 28 30 33 33 33 32 31 31 30 29 28
13 12 8 6 6 8 11 9 6 6 7 7 7 9 8 9 12 11 11 12 21 17 11 5 3 1 6 12 18 22 22 19 14 10 10 9 15 24 17 14 15 17 20 23 25 28 31 32 33 31 30 29 29 29
4 7 5 7 5 4 10 8 3 3 5 5 5 5 7 6 15 11 13 21 25 17 10 9 7 2 7 12 16 18 17 15 13 12 12 7 6 18 23 18 14 13 16 21 25 27 29 29 28 27 27 27 27 28
Wind_Direction_850mb
43 45 53 61 75 86 104 110 113 122 130 136 140 133 157 201 224 235 241 230 206 155 49 195 181 167 158 177 174 157 119 209 140 148 114 186 129 206 121 150 168 168 155 173 117 165 260 108 121 178 123 118 141 137
45 49 49 62 62 88 102 109 115 119 124 139 146 147 26 39 38 213 243 208 188 102 108 94 135 164 183 169 159 165 187 142 207 112 138 117 139 138 152 183 118 212 183 172 187 200 79 66 92 139 156 145 151 146
39 48 50 53 63 75 71 109 133 141 109 105 165 4 15 16 30 34 131 120 117 104 68 77 71 106 140 148 161 162 154 149 242 146 150 153 133 147 158 227 101 251 167 118 115 149 133 124 128 141 156 150 152 153
38 42 50 56 55 61 68 89 103 126 212 216 244 289 326 325 5 18 3 2 38 89 81 46 83 71 105 134 167 132 153 151 129 109 100 119 121 201 186 150 146 182 132 133 77 114 116 177 165 150 144 145 146 147
37 38 41 45 57 61 58 49 32 354 232 212 236 305 334 337 344 349 17 22 15 130 136 112 70 61 102 110 96 119 143 97 68 69 49 89 117 115 343 56 228 203 158 177 203 174 135 158 169 164 156 152 150 152
31 35 38 39 38 41 55 60 51 39 56 137 106 95 78 6 285 327 47 57 50 53 83 56 45 35 77 100 126 103 109 91 63 82 69 68 67 74 109 183 116 145 156 160 141 159 139 151 161 169 165 159 154 155
22 26 29 32 33 33 31 40 49 65 52 76 84 13 303 292 3 92 46 17 38 42 68 60 21 15 33 51 60 62 82 78 69 96 63 97 90 86 102 195 134 140 131 125 137 136 118 151 166 167 167 160 158 153
21 19 18 22 25 26 27 32 46 70 83 73 71 59 54 65 72 71 55 27 32 77 63 76 324 29 17 21 35 27 54 63 37 70 61 42 12 37 293 104 149 141 142 147 153 173 173 162 158 160 161 159 155 148
15 17 17 14 14 18 19 23 25 44 347 5 13 28 64 47 41 32 14 29 43 80 96 59 40 314 2 19 29 37 35 59 18 50 41 353 322 216 171 172 172 166 161 165 153 144 147 156 155 158 163 161 158 150
14 13 12 13 12 10 13 12 8 353 9 14 4 6 65 24 3 317 348 17 33 35 52 92 345 340 355 360 37 25 31 50 63 13 333 57 269 315 334 194 187 176 173 165 150 149 160 162 165 164 163 160 160 157
6 8 10 8 7 9 12 15 14 16 18 357 358 44 28 11 22 46 54 41 353 31 21 17 23 331 20 28 32 32 74 5 79 288 97 332 299 100 150 159 170 178 175 174 182 180 176 179 172 168 166 165 164 162
2 1 4 5 4 5 8 11 29 48 62 54 67 43 20 22 36 69 18 353 41 83 345 8 335 346 0 2 93 1 113 27 207 317 64 318 241 173 165 163 166 170 177 187 180 170 170 168 169 168 168 167 166 165
358 1 2 2 1 3 6 8 8 24 35 44 29 49 10 350 42 64 344 331 24 341 352 337 329 344 340 10 68 56 64 205 301 37 237 238 284 203 181 177 178 181 185 186 180 174 173 175 174 174 174 175 177 182
351 354 1 2 2 2 4 14 12 12 28 39 37 23 76 341 222 183 185 189 196 268 339 339 305 36 6 39 8 74 255 66 38 19 248 268 328 220 189 189 198 201 196 188 183 183 182 182 183 184 184 188 195 201
345 343 352 359 2 360 360 9 24 44 57 67 44 61 61 148 155 168 213 274 194 341 352 17 44 9 355 64 39 91 25 324 198 228 236 318 335 207 194 199 202 204 204 196 191 189 188 189 189 191 196 204 213 219
341 342 348 349 353 357 358 350 4 76 67 75 83 95 146 81 223 211 202 197 172 186 47 53 83 50 357 113 49 220 115 225 252 225 274 321 326 221 208 215 216 210 207 208 205 200 198 199 201 204 211 217 224 234
336 335 336 342 347 350 353 332 27 61 74 72 68 128 137 101 124 152 164 172 159 169 212 107 66 207 95 38 294 196 202 213 208 230 273 308 304 243 219 220 217 214 209 206 206 207 206 207 211 217 224 228 236 246
323 324 330 335 341 347 357 31 73 88 78 113 133 150 157 145 148 160 173 166 160 175 157 185 131 110 181 176 259 232 226 212 245 279 286 284 268 236 224 229 226 219 213 210 211 211 215 220 228 232 231 235 244 256
322 322 324 330 339 340 339 14 54 97 96 124 143 152 142 162 172 165 169 171 164 155 148 138 89 201 227 210 213 198 204 217 244 278 287 282 269 249 234 222 217 217 216 216 217 221 226 237 241 237 239 244 252 262
310 307 309 316 330 315 300 10 71 107 139 153 152 157 150 169 172 182 184 179 171 196 164 196 215 215 211 225 212 212 226 242 253 268 284 279 262 245 236 229 227 222 219 221 223 227 233 240 243 243 247 250 253 263
310 308 304 310 304 239 230 172 100 107 136 150 153 153 155 160 176 180 196 196 205 221 239 232 234 237 236 243 231 226 233 250 261 262 267 276 256 230 225 225 221 221 225 227 231 236 241 246 248 244 246 251 255 259
294 290 292 281 244 223 150 157 124 137 140 134 150 155 151 167 183 189 182 197 236 234 217 237 248 247 249 251 247 247 247 251 253 252 254 255 247 232 224 222 223 228 232 236 240 245 250 250 244 244 250 254 255 259
291 267 242 233 212 204 181 161 146 134 113 184 150 86 226 193 182 178 246 232 251 249 237 241 244 246 251 257 254 250 251 251 255 253 250 248 245 242 233 232 236 241 243 244 245 247 246 242 244 249 253 254 258 258
253 250 240 226 203 162 151 137 144 125 127 142 147 215 217 183 168 181 254 245 241 243 236 233 235 242 248 253 254 256 257 260 260 253 247 247 249 250 251 249 247 248 249 247 242 242 240 240 242 246 251 255 256 256
255 232 213 235 169 116 118 118 126 160 195 172 162 219 185 159 190 230 240 263 240 244 235 227 229 234 245 255 259 258 256 257 259 262 256 255 257 254 252 252 251 249 246 244 242 243 245 243 244 248 251 253 254 256
233 212 186 199 178 172 178 155 197 192 151 170 212 134 151 146 165 242 230 244 233 222 214 226 239 242 254 268 270 268 258 255 258 259 263 257 258 260 261 259 256 252 251 251 248 246 245 242 242 246 249 253 253 257
244 239 201 191 169 155 109 111 140 160 170 195 175 162 177 200 241 247 246 236 218 213 226 239 244 249 254 263 269 276 285 286 280 273 274 271 263 258 257 255 257 260 251 248 248 244 244 244 244 245 250 249 251 257
233 189 194 176 184 194 148 158 177 204 198 165 139 186 189 200 239 239 221 207 209 238 251 254 256 258 266 278 290 296 293 286 280 274 270 268 266 262 258 258 256 251 245 242 242 239 238 235 235 241 247 250 254 258
207 184 163 146 177 213 224 197 211 199 177 174 185 213 233 225 238 241 239 259 262 257 259 269 270 276 286 290 289 292 294 295 291 284 281 278 273 270 265 253 245 244 238 233 233 231 230 230 234 241 245 249 254 259
199 179 182 182 184 224 212 207 216 200 199 206 233 266 265 262 268 268 266 279 279 279 276 277 276 261 267 291 301 303 301 298 290 279 275 275 269 257 247 236 233 225 225 227 225 224 226 231 238 244 248 254 258 260
173 181 187 202 242 235 227 221 225 227 229 236 240 251 261 283 285 290 281 277 269 233 168 160 185 281 314 327 333 333 327 319 311 294 277 263 242 229 229 226 221 217 215 218 223 230 236 244 251 253 255 257 258 259
188 200 190 211 240 229 211 204 215 229 234 231 248 242 280 285 272 264 251 211 179 171 171 181 169 83 13 356 353 353 349 353 2 359 340 305 223 203 196 191 192 199 202 216 233 243 249 253 256 257 256 253 256 258
171 203 246 295 280 247 197 183 207 293 246 257 256 257 238 241 255 249 232 204 192 187 187 178 159 95 5 360 359 4 14 25 39 35 23 18 192 200 199 195 205 222 236 250 258 257 255 254 251 249 249 253 256 257